Alpena, MI

10:46 AM EDT on August 21, 2017 (GMT -0400)
Alpena County Regional

Weather History for KAPN - April, 2014

Change the Weather History Date:

Friday, April 4, 2014

  Actual Average Record
Temperature  
Mean Temperature 33 °F 37 °F  
Max Temperature 35 °F 47 °F 79 °F (1921)
Min Temperature 30 °F 27 °F 0 °F (1932)
Degree Days  
Heating Degree Days 32 28  
Month to date heating degree days 127 116  
Since 1 July heating degree days 8014 6972  
Cooling Degree Days 0 0  
Month to date cooling degree days 0 0  
Year to date cooling degree days 0 0  
Moisture  
Dew Point 30 °F    
Average Humidity 82    
Maximum Humidity 100    
Minimum Humidity 64    
Precipitation  
Precipitation 0.90 in 0.08 in 0.90 in (2014)
Month to date precipitation 0.97 0.31  
Year to date precipitation 4.67 5.15  
Snow  
Snow 0.10 in 0.30 in 5.60 in (1980)
Month to date snowfall 0.5 1.3  
Since 1 July snowfall 63.3 79.6  
Snow Depth 2.00 in    
Sea Level Pressure  
Sea Level Pressure 29.53 in    
Wind  
Wind Speed 10 mph (East)    
Max Wind Speed 20 mph    
Max Gust Speed 27 mph    
Visibility 6 miles    
Events Rain , Snow    
T = Trace of Precipitation, MM = Missing Value Source: NWS Daily Summary

Daily Weather History Graph

Daily Weather History Graph

Search for Another Location

Airport or City:

Trip Planner

Search our weather history database for the weather conditions in past years. The results will help you decide how hot, cold, wet, or windy it might be!

Date:

Astronomy

Apr. 04, 2014 Rise Set
Actual Time 7:09 AM EDT 8:05 PM EDT
Civil Twilight 6:39 AM EDT 8:35 PM EDT
Nautical Twilight 6:03 AM EDT 9:11 PM EDT
Astronomical Twilight 5:26 AM EDT 9:49 PM EDT
Moon 10:15 AM EDT (4/4) 12:32 AM EDT (4/4)
Length of Visible Light 13h 56m
Length of Day
12h 56m
Waxing Crescent, 25% of the Moon is Illuminated
Apr 4
Waxing Crescent
Apr 7
First Quarter
Apr 15
Full
Apr 22
Last Quarter
Apr 29
New

Hourly Weather History & Observations

Time (EDT) Temp. Windchill Dew Point Humidity Pressure Visibility Wind Dir Wind Speed Gust Speed Precip Events Conditions
12:54 AM 35.1 °F 27.9 °F 25.0 °F 67% 29.96 in 10.0 mi East 9.2 mph - N/A   Overcast
1:54 AM 35.1 °F 27.9 °F 26.1 °F 70% 29.91 in 10.0 mi East 9.2 mph - N/A   Overcast
2:54 AM 35.1 °F 26.9 °F 26.1 °F 70% 29.88 in 10.0 mi East 11.5 mph - N/A   Overcast
3:54 AM 34.0 °F 24.6 °F 26.1 °F 73% 29.82 in 10.0 mi East 13.8 mph 21.9 mph N/A   Overcast
4:54 AM 34.0 °F 26.0 °F 26.1 °F 73% 29.81 in 10.0 mi East 10.4 mph - N/A   Overcast
5:54 AM 34.0 °F 24.2 °F 26.1 °F 73% 29.78 in 10.0 mi ESE 15.0 mph - N/A   Overcast
6:24 AM 33.1 °F 22.2 °F 26.1 °F 75% 29.75 in 10.0 mi ESE 17.3 mph 23.0 mph N/A   Overcast
6:54 AM 33.1 °F 22.6 °F 26.1 °F 75% 29.73 in 10.0 mi East 16.1 mph 26.5 mph N/A   Overcast
7:54 AM 33.1 °F 23.4 °F 26.1 °F 75% 29.69 in 10.0 mi ESE 13.8 mph 25.3 mph N/A   Overcast
8:54 AM 33.1 °F 23.0 °F 26.1 °F 75% 29.67 in 10.0 mi ESE 15.0 mph - N/A   Overcast
9:54 AM 33.1 °F 22.6 °F 28.0 °F 82% 29.61 in 10.0 mi ESE 16.1 mph 26.5 mph N/A   Overcast
10:05 AM 32.0 °F 22.1 °F 28.0 °F 85% 29.58 in 10.0 mi ESE 13.8 mph 21.9 mph N/A   Overcast
10:52 AM 32.0 °F 22.1 °F 28.4 °F 87% 29.54 in 3.0 mi ESE 13.8 mph 21.9 mph N/A   Overcast
10:54 AM 32.0 °F 23.0 °F 28.9 °F 88% 29.57 in 3.0 mi ESE 11.5 mph 21.9 mph N/A   Overcast
11:07 AM 32.0 °F 22.5 °F 30.0 °F 92% 29.53 in 2.5 mi ESE 12.7 mph - N/A   Overcast
11:21 AM 32.0 °F 20.5 °F 30.0 °F 92% 29.51 in 1.5 mi East 18.4 mph 24.2 mph N/A   Overcast
11:42 AM 30.9 °F 19.8 °F 30.0 °F 96% 29.51 in 2.5 mi ESE 16.1 mph 20.7 mph N/A   Overcast
11:54 AM 30.9 °F 21.2 °F 30.9 °F 100% 29.53 in 2.5 mi East 12.7 mph 23.0 mph N/A   Overcast
12:09 PM 32.0 °F 23.0 °F 30.9 °F 96% 29.49 in 4.0 mi ESE 11.5 mph 20.7 mph 0.01 in   Overcast
12:25 PM 32.0 °F 22.1 °F 30.9 °F 96% 29.48 in 2.5 mi ESE 13.8 mph 20.7 mph 0.03 in   Overcast
12:54 PM 32.0 °F 23.6 °F 30.9 °F 96% 29.49 in 2.0 mi ESE 10.4 mph 19.6 mph 0.04 in   Overcast
1:14 PM 32.0 °F 24.8 °F 32.0 °F 100% 29.45 in 3.0 mi East 8.1 mph 17.3 mph 0.02 in   Overcast
1:31 PM 32.0 °F 27.5 °F 32.0 °F 100% 29.50 in 1.8 mi Variable 4.6 mph - 0.06 in   Overcast
1:48 PM 33.8 °F - 32.0 °F 93% 29.49 in 1.8 mi Calm Calm - 0.16 in Rain Heavy Rain
1:54 PM 33.1 °F 30.0 °F 30.9 °F 92% 29.51 in 2.5 mi NE 3.5 mph - 0.19 in Rain Rain
1:58 PM 33.1 °F 30.0 °F 30.9 °F 92% 29.48 in 3.0 mi ENE 3.5 mph - 0.01 in Rain Rain
2:54 PM 33.1 °F 27.7 °F 32.0 °F 96% 29.45 in 3.0 mi NE 5.8 mph - 0.20 in Rain Rain
3:42 PM 33.1 °F 26.1 °F 32.0 °F 96% 29.40 in 3.0 mi East 8.1 mph - 0.15 in Rain Rain
3:54 PM 33.1 °F 25.5 °F 32.0 °F 96% 29.42 in 5.0 mi East 9.2 mph - 0.18 in Rain Rain
4:11 PM 32.0 °F 25.6 °F 32.0 °F 100% 29.38 in 3.0 mi East 6.9 mph - 0.10 in   Overcast
4:54 PM 33.1 °F 28.7 °F 32.0 °F 96% 29.34 in 10.0 mi Variable 4.6 mph - 0.13 in   Overcast
5:54 PM 33.1 °F 26.1 °F 33.1 °F 100% 29.40 in 10.0 mi SSW 8.1 mph - N/A   Overcast
6:41 PM 34.0 °F - 33.1 °F 96% 29.37 in 5.0 mi Calm Calm - 0.02 in Rain Light Rain
6:54 PM 34.0 °F - 33.1 °F 96% 29.40 in 4.0 mi Calm Calm - 0.02 in Rain Light Rain
7:05 PM 33.1 °F - 33.1 °F 100% 29.38 in 2.5 mi Calm Calm - 0.02 in Rain Rain
7:27 PM 33.1 °F - 32.0 °F 96% 29.38 in 2.5 mi Calm Calm - 0.05 in Rain Light Rain
7:41 PM 33.1 °F - 32.0 °F 96% 29.39 in 1.5 mi Calm Calm - 0.06 in Snow Light Snow
7:54 PM 32.0 °F - 32.0 °F 100% 29.42 in 1.2 mi Calm Calm - 0.08 in Snow Light Snow
8:08 PM 32.0 °F - 32.0 °F 100% 29.39 in 3.0 mi Calm Calm - 0.00 in Snow Light Snow
8:19 PM 32.0 °F - 32.0 °F 100% 29.40 in 3.0 mi Calm Calm - 0.00 in Snow Light Snow
8:29 PM 32.0 °F 28.7 °F 32.0 °F 100% 29.40 in 4.0 mi West 3.5 mph - 0.00 in Snow Light Snow
8:54 PM 33.1 °F 27.7 °F 33.1 °F 100% 29.44 in 9.0 mi WNW 5.8 mph - 0.01 in   Overcast
9:11 PM 33.1 °F 26.9 °F 33.1 °F 100% 29.42 in 10.0 mi WNW 6.9 mph - N/A   Overcast
9:26 PM 33.1 °F 26.1 °F 33.1 °F 100% 29.42 in 10.0 mi WNW 8.1 mph - N/A   Overcast
9:33 PM 32.0 °F 23.6 °F 32.0 °F 100% 29.43 in 10.0 mi WNW 10.4 mph - N/A   Overcast
9:54 PM 32.0 °F 26.4 °F 32.0 °F 100% 29.46 in 5.0 mi WNW 5.8 mph - 0.00 in Snow Light Snow
10:10 PM 32.0 °F 25.6 °F 32.0 °F 100% 29.44 in 3.0 mi WNW 6.9 mph - 0.00 in Snow Light Snow
10:29 PM 32.0 °F 24.8 °F 32.0 °F 100% 29.45 in 2.5 mi WNW 8.1 mph - 0.00 in Snow Light Snow
10:54 PM 32.0 °F 25.6 °F 32.0 °F 100% 29.49 in 1.8 mi WNW 6.9 mph - 0.01 in Snow Light Snow
11:54 PM 30.9 °F 20.7 °F 30.9 °F 100% 29.55 in 1.5 mi WNW 13.8 mph 23.0 mph 0.03 in Snow Light Snow